Bodensee (Kressbronn): 6,1°C  -  Teich der Wetterzentrale Bad Schussenried: 5,0°C |  Schneehöhe Kreuzthal-Steinberg (930 m ü. NN): 10 cm   
13.12.2019Höhe
ü. NN
ZeitTemperatur (°C)Nieder-
schlag
Luft-
feuchte
Luft-
druck
Wind
StationaktuellMinimumMaximumaktuellMaximum
Aldingen654 m02:11-0,5-1,0 (21:41)-0,2 (11:26)0,2 l/m²90%991,314,8 km/h (3 Bft) SO22,2 km/h (4 Bft) O-SO (01:41)
Allmannsweiler625 m02:10-1,4-3,1 (01:00)-1,4 (02:10)0,0 l/m²92%991,18,0 km/h (2 Bft) SW11,3 km/h (2 Bft) W-SW (01:45)
Allmendingen541 m02:10-3,9-4,7 (23:50)-3,9 (14:25)0,0 l/m²93%991,60,0 km/h (0 Bft) O-NO22,5 km/h (4 Bft) W-SW (14:20)
Altshausen574 m02:10-3,3-4,6 (00:05)-3,2 (01:59)0,0 l/m²85%990,53,2 km/h (1 Bft) O-NO6,4 km/h (2 Bft) O-NO (01:53)
Amstetten-Reutti663 m02:10-3,4-4,8 (01:10)-3,4 (13:50)0,0 l/m²96%991,212,9 km/h (3 Bft) O-SO19,3 km/h (3 Bft) W-SW (14:10)
Amtzell-Grenis677 m02:10-1,4-2,4 (00:40)-1,1 (01:45)0,0 l/m²67%993,312,9 km/h (3 Bft) S20,9 km/h (4 Bft) S (01:25)
Aulendorf570 m02:10-2,4-3,0 (00:44)-2,3 (02:09)0,0 l/m²92%991,00,0 km/h (0 Bft) W4,8 km/h (1 Bft) O (00:14)
Bad Krozingen233 m02:106,10,7 (22:25)6,1 (02:10)0,4 l/m²80%989,229,7 km/h (5 Bft) S-SO37,9 km/h (5 Bft) SW (08:05)
Bad Saulgau595 m02:10-2,7-3,4 (00:45)-2,7 (14:05)0,0 l/m²93%990,20,0 km/h (0 Bft) SW27,4 km/h (4 Bft) N-NW (10:25)
Bad Saulgau-Lampertsweiler627 m02:10-2,6-3,1 (01:15)-2,2 (00:05)0,0 l/m²88%993,70,0 km/h (0 Bft) S-SO0,0 km/h (0 Bft) S-SO (00:00)
Bad Schussenried572 m02:10-3,2-3,8 (00:00)-3,2 (02:05)0,0 l/m²95%989,90,0 km/h (0 Bft) W-SW0,0 km/h (0 Bft) W-SW (00:00)
Bergatreute615 m02:10-1,7-1,8 (00:10)-1,6 (00:00)0,0 l/m²88%991,13,2 km/h (1 Bft) SO8,0 km/h (2 Bft) O (00:55)
Biberach (Riss), Boehringer533 m02:10-3,0-3,7 (01:50)-2,9 (02:10)0,0 l/m²98%992,80,4 km/h (0 Bft) O-SO5,0 km/h (1 Bft) W-NW (00:40)
Biberach (Riss), Realschule553 m02:10-3,3-3,4 (01:35)-2,7 (00:00)0,0 l/m²94%992,53,2 km/h (1 Bft) SW6,4 km/h (2 Bft) S-SO (00:00)
Burgrieden523 m02:10-3,4-3,4 (00:30)-3,0 (00:00)0,0 l/m²90%991,50,0 km/h (0 Bft) O6,4 km/h (2 Bft) S-SO (00:15)
Burgrieden-Hochstetten510 m02:10-3,5-3,9 (01:10)-3,0 (14:05)0,0 l/m²94%991,80,0 km/h (0 Bft) S22,5 km/h (4 Bft) W-SW (13:45)
Ebersbach579 m02:10-3,1-3,8 (01:20)-2,8 (00:00)0,0 l/m²95%992,00,0 km/h (0 Bft) N-NO4,8 km/h (1 Bft) O (02:00)
Ebersbach-Boos605 m02:10-3,0-3,5 (01:35)-2,7 (00:00)0,0 l/m²95%991,90,0 km/h (0 Bft) O0,0 km/h (0 Bft) O-SO (00:00)
Ebersbach-Menzenweiler661 m02:10-1,8-1,9 (01:40)-1,0 (00:45)0,0 l/m²89%991,88,0 km/h (2 Bft) S-SO17,7 km/h (3 Bft) O-SO (00:15)
Erlenmoos645 m02:10-2,6-2,7 (01:20)-2,0 (00:20)0,0 l/m²92%991,711,3 km/h (2 Bft) S-SW17,7 km/h (3 Bft) S (00:15)
Ertingen569 m02:10-2,9-3,1 (01:40)-2,8 (00:40)0,0 l/m²95%991,31,6 km/h (1 Bft) SO3,2 km/h (1 Bft) SO (00:10)
Friedrichshafen405 m02:100,0-0,4 (01:00)0,4 (14:40)0,0 l/m²85%992,04,8 km/h (1 Bft) W-SW30,6 km/h (5 Bft) W-NW (12:40)
Günzburg443 m02:10-3,9-3,9 (02:00)-2,7 (00:00)0,0 l/m²92%989,30,0 km/h (0 Bft) S0,0 km/h (0 Bft) S (00:00)
Hochdorf-Appendorf537 m02:10-4,1-5,0 (00:10)-4,1 (02:10)0,0 l/m²79%999,13,2 km/h (1 Bft) S8,0 km/h (2 Bft) NW (00:35)
Höchsten802 m02:10-1,7-2,9 (01:00)-1,7 (02:00)0,0 l/m²89%989,69,7 km/h (2 Bft) SW14,5 km/h (3 Bft) S-SW (01:55)
Horgenzell618 m02:10-1,8-2,2 (00:35)-1,6 (00:00)0,0 l/m²87%990,33,2 km/h (1 Bft) S-SW6,4 km/h (2 Bft) O-SO (00:50)
Hoßkirch632 m02:10-3,1-4,4 (00:20)-3,0 (02:10)0,0 l/m²95%990,40,0 km/h (0 Bft) N6,4 km/h (2 Bft) N (01:15)
Isny, Am Dreifingerbach695 m02:10-5,3-7,2 (00:30)-5,3 (02:10)0,0 l/m²95%991,89,7 km/h (2 Bft) O-SO9,7 km/h (2 Bft) O (02:10)
Isny, Weidachweg706 m02:10-5,1-7,0 (00:50)-5,0 (02:10)0,0 l/m²88%994,18,0 km/h (2 Bft) SO8,0 km/h (2 Bft) SO (02:00)
Kappel-Grafenhausen163 m02:052,40,1 (22:35)2,4 (13:55)0,0 l/m²90%987,017,7 km/h (3 Bft) S33,8 km/h (5 Bft) S (12:10)
Kirchberg an der Iller584 m02:10-2,7-3,0 (01:20)-2,4 (03:00)0,0 l/m²87%983,40,0 km/h (0 Bft) S-SO22,2 km/h (4 Bft) O-SO (12:40)
Kißlegg-Staibshof709 m02:10-3,4-3,7 (00:00)-3,4 (02:05)0,0 l/m²92%991,90,0 km/h (0 Bft) S-SO0,0 km/h (0 Bft) SW (00:00)
Kressbronn398 m02:121,41,1 (00:14)2,1 (00:50)0,0 l/m²86%990,90,0 km/h (0 Bft) W29,0 km/h (5 Bft) W (00:42)
Kreuzthal-Steinberg-Alpe930 m02:10-5,0-5,5 (01:50)-4,9 (02:10)0,0 l/m²100%996,51,4 km/h (1 Bft) SW6,5 km/h (2 Bft) W-NW (00:00)
Kreuzthal-Steinberggipfel1040 m02:00-3,4-4,4 (00:10)-3,2 (01:50)-81%996,53,2 km/h (1 Bft) SW12,2 km/h (3 Bft) S (00:00)
Kristberg im Montafon (AT)1425 m02:10-2,3-5,6 (00:00)-2,3 (02:10)0,0 l/m²58%994,89,7 km/h (2 Bft) S-SO9,7 km/h (2 Bft) N-NO (00:15)
Laupheim500 m02:10-2,9-3,5 (00:05)-2,9 (02:10)0,0 l/m²92%991,00,0 km/h (0 Bft) O-SO4,8 km/h (1 Bft) O-SO (00:45)
Leutkirch-Heggelbach670 m02:10-5,6-6,2 (01:30)-5,6 (00:00)0,0 l/m²93%991,20,0 km/h (0 Bft) W-SW1,6 km/h (1 Bft) SW (00:10)
Lindau-Insel420 m02:102,11,5 (00:40)2,3 (15:10)0,0 l/m²84%991,43,2 km/h (1 Bft) W-NW27,4 km/h (4 Bft) S-SO (21:00)
Lindau-Stadt412 m02:101,60,9 (20:10)1,6 (14:45)0,0 l/m²81%991,81,6 km/h (1 Bft) O-SO24,1 km/h (4 Bft) O-SO (14:30)
Maierhöfen im Allgäu733 m02:10-7,6-10,2 (00:40)-7,6 (02:10)0,0 l/m²94%993,03,2 km/h (1 Bft) W-SW3,2 km/h (1 Bft) W-SW (00:25)
Maselheim543 m02:10-3,2-3,7 (00:50)-2,8 (15:20)0,0 l/m²91%991,83,2 km/h (1 Bft) S29,0 km/h (5 Bft) SW (12:20)
Maselheim-Sulmingen548 m02:10-3,3-4,1 (00:15)-3,3 (15:20)0,0 l/m²94%993,10,0 km/h (0 Bft) O30,6 km/h (5 Bft) W (12:45)
Mietingen-Baltringen528 m02:10-3,2-3,3 (01:50)-2,7 (00:00)0,0 l/m²90%993,20,0 km/h (0 Bft) W6,4 km/h (2 Bft) O-SO (00:35)
Mittelbiberach577 m02:10-3,4-4,3 (00:10)-3,3 (15:10)0,0 l/m²93%992,83,2 km/h (1 Bft) SW25,7 km/h (4 Bft) W-SW (13:30)
Neresheim552 m02:00-3,2-3,2 (02:00)-2,0 (00:00)0,0 l/m²100%988,36,5 km/h (2 Bft) SO6,5 km/h (2 Bft) SO (02:00)
Neukirch570 m02:10-2,4-2,6 (23:00)-0,7 (14:55)0,0 l/m²91%992,03,2 km/h (1 Bft) NO30,6 km/h (5 Bft) W-SW (12:10)
Ochsenhausen, Birkenstraße613 m02:10-3,2-3,4 (01:50)-2,2 (15:10)0,0 l/m²86%992,20,0 km/h (0 Bft) N0,0 km/h (0 Bft) N (03:00)
Ochsenhausen, Unt. Wiesen575 m02:10-3,4-3,8 (01:20)-2,3 (00:00)0,0 l/m²92%993,24,8 km/h (1 Bft) S6,4 km/h (2 Bft) S (01:50)
Ostrach619 m02:10-2,2-3,8 (00:45)-2,2 (02:05)0,0 l/m²96%990,01,6 km/h (1 Bft) S4,8 km/h (1 Bft) S (00:55)
Ravensburg, Goethestraße428 m02:20-1,3-1,6 (00:50)-1,3 (00:25)0,0 l/m²93%991,00,0 km/h (0 Bft) N-NO3,2 km/h (1 Bft) N-NO (02:10)
Ravensburg, Springerstraße441 m02:10-0,6-1,4 (00:00)-0,6 (02:10)0,0 l/m²85%990,10,0 km/h (0 Bft) O-NO0,0 km/h (0 Bft) O-NO (00:00)
Ravensburg-Wernsreute511 m02:10-1,6-2,4 (23:45)-1,6 (14:35)0,0 l/m²92%993,94,8 km/h (1 Bft) O30,6 km/h (5 Bft) W-SW (11:45)
Reichenbach an der Fils343 m02:101,0-0,6 (00:20)1,3 (01:35)0,0 l/m²79%991,99,7 km/h (2 Bft) O-SO19,3 km/h (3 Bft) O-SO (00:55)
Reinstetten559 m02:10-3,8-3,9 (01:45)-2,7 (00:00)0,0 l/m²92%992,40,0 km/h (0 Bft) W-SW8,0 km/h (2 Bft) SW (00:10)
Riedlingen530 m02:10-2,9-3,4 (01:15)-2,9 (02:05)0,0 l/m²96%991,70,0 km/h (0 Bft) O-SO0,0 km/h (0 Bft) S-SW (00:00)
Rißtissen489 m02:10-2,7-3,0 (00:45)-2,7 (00:00)0,0 l/m²94%989,10,0 km/h (0 Bft) S-SO0,0 km/h (0 Bft) S-SW (00:00)
Schemmerhofen520 m02:10-3,4-3,7 (01:25)-3,2 (00:00)0,0 l/m²96%991,30,0 km/h (0 Bft) O-SO4,8 km/h (1 Bft) O-SO (00:35)
Silbertal im Montafon (AT)884 m02:10-3,3-6,5 (00:00)-3,3 (02:10)0,0 l/m²96%994,73,2 km/h (1 Bft) O-NO6,4 km/h (2 Bft) O-NO (01:00)
Tettnang466 m02:100,90,8 (00:05)1,0 (01:05)0,0 l/m²80%991,54,8 km/h (1 Bft) O-SO16,1 km/h (3 Bft) SO (00:05)
Tuttlingen662 m02:08-2,2-4,2 (00:13)-1,9 (01:53)0,0 l/m²83%994,23,1 km/h (1 Bft) NO3,1 km/h (1 Bft) NO (02:08)
Tuttlingen, Möhringer-Vorstadt711 m02:10-1,8-3,8 (23:40)-1,8 (13:50)0,0 l/m²95%991,18,0 km/h (2 Bft) SW19,3 km/h (3 Bft) W (13:50)
Ummendorf547 m02:10-3,3-3,9 (00:20)-2,4 (00:00)0,0 l/m²86%992,90,0 km/h (0 Bft) S6,4 km/h (2 Bft) S (02:05)
Ummendorf-Fischbach558 m02:10-3,4-4,3 (00:05)-3,4 (02:10)0,0 l/m²86%992,64,8 km/h (1 Bft) O-SO6,4 km/h (2 Bft) S (00:40)
Waldburg707 m02:10-1,5-2,3 (00:55)-1,5 (02:10)0,0 l/m²84%991,40,0 km/h (0 Bft) N9,7 km/h (2 Bft) N (00:10)
Waltenhofen im Allgäu720 m02:10-5,4-7,0 (00:25)-5,4 (01:55)0,0 l/m²93%991,94,8 km/h (1 Bft) S30,6 km/h (5 Bft) S (13:05)
Weingarten500 m02:10-1,2-2,1 (00:00)-1,2 (02:10)0,0 l/m²92%991,20,0 km/h (0 Bft) SO1,6 km/h (1 Bft) W-NW (00:25)
Winterlingen785 m02:00-3,3-5,2 (00:15)-3,3 (02:00)0,0 l/m²98%990,35,0 km/h (1 Bft) S-SO5,0 km/h (1 Bft) S-SO (02:00)

Werbung
niederschlagsdatenbank | info | login - erfassung

Sollten Sie Interesse haben, an der Niederschlagsdatenbank teilzunehmen, finden Sie > hier < weitere Informationen.

Niederschlagsdaten der Station Illerrieden-Wangen - Am Muckenberg 12

Carmen Sipitzki

Niederschlagsstation aufgenommen ins Stationsnetz der Wetterwarte Süd am 17.02.2019
Monat: .
Anmerkung:0,0 = nicht messbarer Niederschlag
 -  = kein Niederschlag

Stationsdaten

Höhe

510 m

Lage

Auf Google Maps ansehen

Beschreibung

Die Station liegt im Dörfchen Wangen, in lockerer Umgebung, Nähe zur Iller und Waldgebiet. Koordinaten: 48*15'25'' N, 10*3'19'' O 510 m ü. NHN
< November 2019

Dezember 2019

TagNiederschlagBemerkung
01.0,5
02.-
03.-
04.-
05.-
06.1,5
07.-
08.0,5
09.3,5
10.-
11.3,0
12.-
13.-
14.-
15.-
16.-
17.-
18.-
19.-
20.-
21.-
22.-
23.-
24.-
25.-
26.-
27.-
28.-
29.-
30.-
31.-
Gesamt:9,0 
Die Spalten "Tag" und "Niederschlag" lassen sich durch Klicken auf den Spaltenkopf sortieren.
Die Angaben sind in l/m².

< November 2019


Monats- und Jahresniederschlag


Wetterbeobachtungen Legende:

  • Regen
  • Nieselregen
  • Schneeregen
  • Schnee
  • Graupel
  • Eiskörner
  • Hagel
  • Bodennebel
  • Gewitter
  • Nebelnässe
  • Schneegriesel

Grafische Darstellung der Niederschläge der Station Illerrieden-Wangen Dezember 2019

 
wetterstationen
wetterstationen
- derzeit 78 Stationen
niederschlagsdatenbank
wetterstationen
- kartographische Darstellung
niederschlagsdatenbank
niederschlagsstationen
- derzeit 110 Stationen
niederschlagsdatenbank
niederschlagsstationen
- kartographische Darstellung
 
 
Do. 7.30 Uhr - Fr. 7.30 Uhr (MEZ)
1.Füramoos
Hungersberg 1
2,7 l/m²
2.Biberach
Mittelbergstraße 9
1,5 l/m²
3.Bad Schussenried
Konradstraße
0,4 l/m²
 
  treffpunkt & service
--- Anzeigen --------------------------------
zugriffe:
insgesamt: 45.315.026
aktueller monat: 121.968
heute: 156
momentan online: 4
 
 
monatshöchstwert: 653.625
vorheriger monat: 372.551
gestern: 7.263
tageshöchstwert: 51.297
 
wetterwarte süd
 
konradstraße 3
info@wetterwarte-sued.com
roland roth
 
88427 bad schussenried